NI4CE-14 Weather Reports


Display with metric or nautical units.
time (UTC)temp
F
wind
direction
speed
MPH
gust
MPH
rain 1hr
in
rain 24hr
in
rain mn
in
humidity
%
barometer
mb
20260902175859 92 357 6.0 12.0 0.00 0.00 0.00 100 1013.0
20260902175359 93 45 6.0 12.0 0.00 0.00 0.00 100 1013.1
20260902175157 92 336 8.0 13.0 0.00 0.00 0.00 100 1013.2
20260902174859 92 336 8.0 13.0 0.00 0.00 0.00 100 1013.2
20260902174359 91 29 9.0 15.0 0.00 0.00 0.00 100 1013.2
20260902173859 92 350 10.0 12.0 0.00 0.00 0.00 100 1013.3
20260902173718 92 343 7.0 11.0 0.00 0.00 0.00 100 1013.4
20260902173359 92 343 7.0 11.0 0.00 0.00 0.00 100 1013.4
20260902172859 92 358 7.0 13.0 0.00 0.00 0.00 100 1013.3
20260902172659 92 358 5.0 12.0 0.00 0.00 0.00 100 1013.4
20260902172359 92 358 5.0 12.0 0.00 0.00 0.00 100 1013.4
20260902172357 92 23 6.0 11.0 0.00 0.00 0.00 100 1013.4
20260902171859 92 23 6.0 11.0 0.00 0.00 0.00 100 1013.4
20260902171712 92 57 6.0 11.0 0.00 0.00 0.00 100 1013.4
20260902171359 92 57 6.0 11.0 0.00 0.00 0.00 100 1013.4
20260902171233 92 15 11.0 12.0 0.00 0.00 0.00 100 1013.5
20260902170859 92 15 11.0 12.0 0.00 0.00 0.00 100 1013.5
20260902170359 92 50 5.0 13.0 0.00 0.00 0.00 100 1013.6
20260902170139 92 8 10.0 11.0 0.00 0.00 0.00 100 1013.6
20260902165859 92 8 10.0 11.0 0.00 0.00 0.00 100 1013.6
20260902165359 92 358 3.0 12.0 0.00 0.00 0.00 100 1013.7
20260902164859 92 43 8.0 11.0 0.00 0.00 0.00 100 1013.8
20260902164656 92 54 4.0 10.0 0.00 0.00 0.00 100 1014.0
20260902164359 92 54 4.0 10.0 0.00 0.00 0.00 100 1014.0
20260902163859 91 358 9.0 11.0 0.00 0.00 0.00 100 1013.9
20260902163624 91 9 5.0 11.0 0.00 0.00 0.00 100 1014.0
20260902163359 91 9 5.0 11.0 0.00 0.00 0.00 100 1014.0
20260902162859 91 57 8.0 9.0 0.00 0.00 0.00 100 1014.1
20260902162708 91 61 6.0 12.0 0.00 0.00 0.00 100 1014.2
20260902162359 91 61 6.0 12.0 0.00 0.00 0.00 100 1014.2
20260902161859 91 11 12.0 12.0 0.00 0.00 0.00 100 1014.2
20260902161359 92 348 6.0 11.0 0.00 0.00 0.00 100 1014.4
20260902160900 92 52 2.0 8.0 0.00 0.00 0.00 100 1014.4
20260902160712 93 29 6.0 8.0 0.00 0.00 0.00 100 1014.5
20260902160400 93 29 6.0 8.0 0.00 0.00 0.00 100 1014.5
20260902155900 92 33 7.0 7.0 0.00 0.00 0.00 100 1014.5
20260902155400 92 101 5.0 8.0 0.00 0.00 0.00 100 1014.6
20260902154900 92 111 2.0 6.0 0.00 0.00 0.00 100 1014.7
20260902154400 92 87 1.0 6.0 0.00 0.00 0.00 100 1014.8
20260902153900 92 271 0.0 4.0 0.00 0.00 0.00 100 1014.8
20260902153400 91 18 3.0 5.0 0.00 0.00 0.00 100 1014.8
20260902152859 91 74 1.0 4.0 0.00 0.00 0.00 100 1014.9
20260902152624 92 32 2.0 7.0 0.00 0.00 0.00 100 1014.9
20260902152359 92 32 2.0 7.0 0.00 0.00 0.00 100 1014.9
20260902151900 92 78 2.0 5.0 0.00 0.00 0.00 100 1014.8
20260902151621 93 168 0.0 9.0 0.00 0.00 0.00 100 1014.8
20260902151400 93 168 0.0 9.0 0.00 0.00 0.00 100 1014.8
20260902150900 93 279 2.0 7.0 0.00 0.00 0.00 100 1014.8
20260902150400 93 95 6.0 6.0 0.00 0.00 0.00 100 1014.8
20260902145900 93 70 0.0 7.0 0.00 0.00 0.00 100 1014.7
20260902145801 93 101 3.0 6.0 0.00 0.00 0.00 100 1014.8
20260902145400 93 101 3.0 6.0 0.00 0.00 0.00 100 1014.8
20260902145129 92 115 0.0 6.0 0.00 0.00 0.00 100 1014.7
20260902144900 92 115 0.0 6.0 0.00 0.00 0.00 100 1014.7
20260902144400 92 39 2.0 6.0 0.00 0.00 0.00 100 1014.6
20260902143900 91 61 3.0 9.0 0.00 0.00 0.00 100 1014.6
20260902143400 90 9 0.0 7.0 0.00 0.00 0.00 100 1014.6
20260902142900 90 71 1.0 5.0 0.00 0.00 0.00 100 1014.7
20260902142400 90 35 4.0 5.0 0.00 0.00 0.00 100 1014.7
20260902141900 90 21 2.0 6.0 0.00 0.00 0.00 100 1014.7
20260902141556 90 85 3.0 6.0 0.00 0.00 0.00 100 1014.7
20260902141400 90 85 3.0 6.0 0.00 0.00 0.00 100 1014.7
20260902140900 90 82 3.0 7.0 0.00 0.00 0.00 100 1014.6
20260902140755 90 43 1.0 7.0 0.00 0.00 0.00 100 1014.7
20260902140400 90 43 1.0 7.0 0.00 0.00 0.00 100 1014.7
20260902140323 90 111 5.0 6.0 0.00 0.00 0.00 100 1014.7
20260902135900 90 111 5.0 6.0 0.00 0.00 0.00 100 1014.7
20260902135400 90 47 4.0 7.0 0.00 0.00 0.00 100 1014.8
20260902134900 90 45 3.0 4.0 0.00 0.00 0.00 100 1014.8
20260902134400 89 177 3.0 7.0 0.00 0.00 0.00 100 1014.9
20260902134314 89 172 3.0 5.0 0.00 0.00 0.00 100 1014.9
20260902133900 89 172 3.0 5.0 0.00 0.00 0.00 100 1014.9
20260902133715 88 119 3.0 6.0 0.00 0.00 0.00 100 1014.8
20260902133400 88 119 3.0 6.0 0.00 0.00 0.00 100 1014.8
20260902132900 88 191 2.0 8.0 0.00 0.00 0.00 100 1014.9
20260902132801 88 61 5.0 6.0 0.00 0.00 0.00 100 1014.9
20260902132400 88 61 5.0 6.0 0.00 0.00 0.00 100 1014.9
20260902132158 88 73 3.0 7.0 0.00 0.00 0.00 100 1014.8
20260902131900 88 73 3.0 7.0 0.00 0.00 0.00 100 1014.8
20260902131625 88 56 3.0 8.0 0.00 0.00 0.00 100 1015.0
20260902131400 88 56 3.0 8.0 0.00 0.00 0.00 100 1015.0
20260902130900 88 92 4.0 6.0 0.00 0.00 0.00 100 1015.0
20260902130729 87 109 2.0 7.0 0.00 0.00 0.00 100 1015.0
20260902130400 87 109 2.0 7.0 0.00 0.00 0.00 100 1015.0
20260902130313 87 156 1.0 3.0 0.00 0.00 0.00 100 1015.0
20260902125900 87 156 1.0 3.0 0.00 0.00 0.00 100 1015.0
20260902125400 87 56 0.0 1.0 0.00 0.00 0.00 100 1015.0
20260902124900 86 35 0.0 4.0 0.00 0.00 0.00 100 1015.0
20260902124400 86 70 2.0 6.0 0.00 0.00 0.00 100 1014.7
20260902123900 86 81 4.0 5.0 0.00 0.00 0.00 100 1014.9
20260902123400 86 95 0.0 2.0 0.00 0.00 0.00 100 1014.9
20260902122900 86 101 1.0 5.0 0.00 0.00 0.00 100 1014.8
20260902122400 85 119 0.0 4.0 0.00 0.00 0.00 100 1013.5
20260902122134 85 91 0.0 0.0 0.00 0.00 0.00 100 1013.5
20260902121900 85 91 0.0 0.0 0.00 0.00 0.00 100 1013.5
20260902121618 85 91 0.0 0.0 0.00 0.00 0.00 100 1014.7
20260902121400 85 91 0.0 0.0 0.00 0.00 0.00 100 1014.7
20260902120900 85 91 0.0 0.0 0.00 0.00 0.00 100 1014.7
20260902120400 85 91 0.0 2.0 0.00 0.00 0.00 100 1014.7
20260902120133 85 106 1.0 4.0 0.00 0.00 0.00 100 1014.7
20260902115900 85 106 1.0 4.0 0.00 0.00 0.00 100 1014.7
20260902115623 85 88 2.0 4.0 0.00 0.00 0.00 100 1014.6
20260902115400 85 88 2.0 4.0 0.00 0.00 0.00 100 1014.6
20260902114900 85 50 0.0 0.0 0.00 0.00 0.00 100 1014.5
20260902114400 85 50 0.0 0.0 0.00 0.00 0.00 100 1014.6
20260902113900 85 50 0.0 0.0 0.00 0.00 0.00 100 1014.5
20260902113717 85 50 0.0 0.0 0.00 0.00 0.00 100 1014.5
20260902113400 85 50 0.0 0.0 0.00 0.00 0.00 100 1014.5
20260902113109 85 50 0.0 0.0 0.00 0.00 0.00 100 1014.3
20260902112900 85 50 0.0 0.0 0.00 0.00 0.00 100 1014.3
20260902112400 85 50 0.0 0.0 0.00 0.00 0.00 100 1014.3
20260902112118 85 50 0.0 0.0 0.00 0.00 0.00 100 1014.2
20260902111900 85 50 0.0 0.0 0.00 0.00 0.00 100 1014.2
20260902111623 85 50 0.0 3.0 0.00 0.00 0.00 100 1014.1
20260902111400 85 50 0.0 3.0 0.00 0.00 0.00 100 1014.1
20260902110900 85 82 1.0 4.0 0.00 0.00 0.00 100 1014.1
20260902110701 85 122 2.0 3.0 0.00 0.00 0.00 100 1014.1
20260902110400 85 122 2.0 3.0 0.00 0.00 0.00 100 1014.1
20260902110220 85 63 0.0 0.0 0.00 0.00 0.00 100 1014.1
20260902105900 85 63 0.0 0.0 0.00 0.00 0.00 100 1014.1
20260902105400 85 63 0.0 0.0 0.00 0.00 0.00 100 1014.0
20260902104900 85 63 0.0 0.0 0.00 0.00 0.00 100 1014.0
20260902104632 85 63 0.0 0.0 0.00 0.00 0.00 100 1014.0
20260902104400 85 63 0.0 0.0 0.00 0.00 0.00 100 1014.0
20260902104239 85 63 0.0 0.0 0.00 0.00 0.00 100 1014.0
20260902103900 85 63 0.0 0.0 0.00 0.00 0.00 100 1014.0
20260902103632 85 63 0.0 0.0 0.00 0.00 0.00 100 1013.9
20260902103400 85 63 0.0 0.0 0.00 0.00 0.00 100 1013.9
20260902102900 85 63 0.0 0.0 0.00 0.00 0.00 100 1013.9
20260902102509 85 63 0.0 0.0 0.00 0.00 0.00 100 1013.9
20260902102400 85 63 0.0 0.0 0.00 0.00 0.00 100 1013.9
20260902101900 85 63 0.0 0.0 0.00 0.00 0.00 100 1013.9
20260902101400 84 63 0.0 0.0 0.00 0.00 0.00 100 1013.9
20260902100900 84 63 0.0 0.0 0.00 0.00 0.00 100 1013.8
20260902100400 84 63 0.0 4.0 0.00 0.00 0.00 100 1013.8
20260902095900 84 127 0.0 0.0 0.00 0.00 0.00 100 1013.8
20260902095629 85 127 0.0 0.0 0.00 0.00 0.00 100 1013.8
20260902095400 85 127 0.0 0.0 0.00 0.00 0.00 100 1013.8
20260902094900 84 127 0.0 0.0 0.00 0.00 0.00 100 1013.8
20260902094715 84 127 0.0 0.0 0.00 0.00 0.00 100 1013.7
20260902094400 84 127 0.0 0.0 0.00 0.00 0.00 100 1013.7
20260902094129 84 127 0.0 0.0 0.00 0.00 0.00 100 1013.6
20260902094023 84 127 0.0 0.0 0.00 0.00 0.00 100 1013.6
20260902093900 84 127 0.0 0.0 0.00 0.00 0.00 100 1013.6
20260902093806 84 127 0.0 0.0 0.00 0.00 0.00 100 1013.5
20260902093612 91 347 8.0 8.0 0.00 0.00 0.00 100 1015.1
20260902093400 84 127 0.0 0.0 0.00 0.00 0.00 100 1013.5
20260902093110 84 127 0.0 2.0 0.00 0.00 0.00 100 1013.5
20260902092900 84 127 0.0 2.0 0.00 0.00 0.00 100 1013.5
20260902092400 84 98 0.0 2.0 0.00 0.00 0.00 100 1013.5
20260902092133 84 199 0.0 0.0 0.00 0.00 0.00 100 1013.6
20260902091900 84 199 0.0 0.0 0.00 0.00 0.00 100 1013.6
20260902091610 84 199 0.0 0.0 0.00 0.00 0.00 100 1013.5
20260902091400 84 199 0.0 0.0 0.00 0.00 0.00 100 1013.5
20260902090900 84 199 0.0 0.0 0.00 0.00 0.00 100 1013.4
20260902090627 84 199 0.0 0.0 0.00 0.00 0.00 100 1013.4
20260902090400 84 199 0.0 0.0 0.00 0.00 0.00 100 1013.4
20260902085908 84 199 0.0 0.0 0.00 0.00 0.00 100 1013.3
20260902085900 84 199 0.0 0.0 0.00 0.00 0.00 100 1013.3
20260902085400 84 199 0.0 0.0 0.00 0.00 0.00 100 1013.3
20260902085155 84 199 0.0 0.0 0.00 0.00 0.00 100 1013.3
20260902084900 84 199 0.0 0.0 0.00 0.00 0.00 100 1013.3
20260902084706 84 199 0.0 0.0 0.00 0.00 0.00 100 1013.2
20260902084400 84 199 0.0 0.0 0.00 0.00 0.00 100 1013.2
20260902083900 84 199 0.0 3.0 0.00 0.00 0.00 100 1013.2
20260902083400 85 84 0.0 0.0 0.00 0.00 0.00 100 1013.2
20260902083021 85 84 0.0 0.0 0.00 0.00 0.00 100 1013.1
20260902082900 85 84 0.0 0.0 0.00 0.00 0.00 100 1013.1
20260902082400 85 84 0.0 0.0 0.00 0.00 0.00 100 1013.2
20260902082136 85 84 0.0 0.0 0.00 0.00 0.00 100 1013.2
20260902081900 85 84 0.0 0.0 0.00 0.00 0.00 100 1013.2
20260902081629 85 84 0.0 0.0 0.00 0.00 0.00 100 1013.2
20260902081400 85 84 0.0 0.0 0.00 0.00 0.00 100 1013.2
20260902081216 85 84 0.0 0.0 0.00 0.00 0.00 100 1013.2
20260902080900 85 84 0.0 0.0 0.00 0.00 0.00 100 1013.2
20260902080703 85 84 0.0 0.0 0.00 0.00 0.00 100 1013.2
20260902080400 85 84 0.0 0.0 0.00 0.00 0.00 100 1013.2
20260902080200 85 84 0.0 0.0 0.00 0.00 0.00 100 1013.2
20260902075900 85 84 0.0 0.0 0.00 0.00 0.00 100 1013.2
20260902075400 85 84 0.0 0.0 0.00 0.00 0.00 100 1013.3
20260902074900 85 84 0.0 0.0 0.00 0.00 0.00 100 1013.4
20260902074631 85 84 0.0 0.0 0.00 0.00 0.00 100 1013.4
20260902074401 85 84 0.0 0.0 0.00 0.00 0.00 100 1013.4
20260902074217 85 84 0.0 0.0 0.00 0.00 0.00 100 1013.3
20260902073900 85 84 0.0 0.0 0.00 0.00 0.00 100 1013.3
20260902073702 85 84 0.0 0.0 0.00 0.00 0.00 100 1013.3
20260902073400 85 84 0.0 0.0 0.00 0.00 0.00 100 1013.3
20260902072900 85 84 0.0 0.0 0.00 0.00 0.00 100 1013.3
20260902072636 85 84 0.0 0.0 0.00 0.00 0.00 100 1013.4
20260902072400 85 84 0.0 0.0 0.00 0.00 0.00 100 1013.4
20260902072237 85 84 0.0 4.0 0.00 0.00 0.00 100 1013.4
20260902071900 85 84 0.0 4.0 0.00 0.00 0.00 100 1013.4
20260902071702 85 63 0.0 0.0 0.00 0.00 0.00 100 1013.4
20260902071400 85 63 0.0 0.0 0.00 0.00 0.00 100 1013.4
20260902070900 85 63 0.0 0.0 0.00 0.00 0.00 100 1013.5
20260902070706 85 63 0.0 0.0 0.00 0.00 0.00 100 1013.5
20260902070400 85 63 0.0 0.0 0.00 0.00 0.00 100 1013.5
20260902065901 85 63 0.0 1.0 0.00 0.00 0.00 100 1013.5
20260902065400 85 225 0.0 0.0 0.00 0.00 0.00 100 1013.5
20260902064900 85 225 0.0 0.0 0.00 0.00 0.00 100 1013.6
20260902064701 85 225 0.0 0.0 0.00 0.00 0.00 100 1013.6
20260902064400 85 225 0.0 0.0 0.00 0.00 0.00 100 1013.6
20260902064220 85 225 0.0 0.0 0.00 0.00 0.00 100 1013.6
20260902063900 85 225 0.0 0.0 0.00 0.00 0.00 100 1013.6
20260902063400 85 225 0.0 4.0 0.00 0.00 0.00 100 1013.6
20260902063312 85 39 0.0 0.0 0.00 0.00 0.00 100 1013.5
20260902062900 85 39 0.0 0.0 0.00 0.00 0.00 100 1013.5
20260902062701 85 39 0.0 0.0 0.00 0.00 0.00 100 1013.6
20260902062400 85 39 0.0 0.0 0.00 0.00 0.00 100 1013.6
20260902062306 85 39 0.0 0.0 0.00 0.00 0.00 100 1013.7
20260902061900 85 39 0.0 0.0 0.00 0.00 0.00 100 1013.7
20260902061634 85 39 0.0 0.0 0.00 0.00 0.00 100 1013.8
20260902061400 85 39 0.0 0.0 0.00 0.00 0.00 100 1013.8
20260902060900 85 39 0.0 0.0 0.00 0.00 0.00 100 1013.8
20260902060625 85 39 0.0 0.0 0.00 0.00 0.00 100 1013.8
20260902060400 85 39 0.0 0.0 0.00 0.00 0.00 100 1013.8
20260902060220 85 39 0.0 0.0 0.00 0.00 0.00 100 1013.8
20260902055900 85 39 0.0 0.0 0.00 0.00 0.00 100 1013.8
20260902055625 86 39 0.0 0.0 0.00 0.00 0.00 100 1013.8
20260902055400 86 39 0.0 0.0 0.00 0.00 0.00 100 1013.8
20260902054900 86 39 0.0 0.0 0.00 0.00 0.00 100 1013.9
20260902054703 86 39 0.0 0.0 0.00 0.00 0.00 100 1014.0
20260902054445 86 39 0.0 0.0 0.00 0.00 0.00 100 1014.0
20260902054400 86 39 0.0 0.0 0.00 0.00 0.00 100 1014.0
20260902053900 86 39 0.0 0.0 0.00 0.00 0.00 100 1014.0
20260902053633 86 39 0.0 0.0 0.00 0.00 0.00 100 1014.1
20260902053401 86 39 0.0 0.0 0.00 0.00 0.00 100 1014.1
20260902052900 86 39 0.0 0.0 0.00 0.00 0.00 100 1014.2
20260902052627 86 39 0.0 5.0 0.00 0.00 0.00 100 1014.2
20260902052400 86 39 0.0 5.0 0.00 0.00 0.00 100 1014.2
20260902051900 86 29 0.0 0.0 0.00 0.00 0.00 100 1014.1
20260902051623 86 29 0.0 2.0 0.00 0.00 0.00 100 1014.1
20260902051400 86 29 0.0 2.0 0.00 0.00 0.00 100 1014.1
20260902050901 86 161 0.0 3.0 0.00 0.00 0.00 100 1014.2
20260902050704 86 57 0.0 0.0 0.00 0.00 0.00 100 1014.2
20260902050400 86 57 0.0 0.0 0.00 0.00 0.00 100 1014.2
20260902045900 86 57 0.0 0.0 0.00 0.00 0.00 100 1014.2
20260902045706 86 57 0.0 0.0 0.00 0.00 0.00 100 1014.2
20260902045400 86 57 0.0 0.0 0.00 0.00 0.00 100 1014.2
20260902045128 86 57 0.0 2.0 0.00 0.00 0.00 100 1014.1
20260902044900 86 57 0.0 2.0 0.00 0.00 0.00 100 1014.1
20260902044644 86 23 0.0 2.0 0.00 0.00 0.00 100 1014.3
20260902044401 86 23 0.0 2.0 0.00 0.00 0.00 100 1014.3
20260902043901 86 68 0.0 4.0 0.00 0.00 0.00 100 1014.3
20260902043549 86 198 0.0 3.0 0.00 0.00 0.00 100 1014.3
20260902043401 86 198 0.0 3.0 0.00 0.00 0.00 100 1014.3
20260902042901 86 39 0.0 4.0 0.00 0.00 0.00 100 1014.4
20260902042401 86 165 0.0 0.0 0.00 0.00 0.00 100 1014.4
20260902041940 86 84 1.0 3.0 0.00 0.00 0.00 100 1014.5
20260902041901 86 165 0.0 1.0 0.00 0.00 0.00 100 1014.5
20260902041713 86 84 1.0 3.0 0.00 0.00 0.00 100 1014.5
20260902041401 86 84 1.0 3.0 0.00 0.00 0.00 100 1014.5
20260902040901 87 80 1.0 2.0 0.00 0.00 0.00 100 1014.6
20260902040713 87 70 0.0 5.0 0.00 0.00 0.00 100 1014.5
20260902040401 87 70 0.0 5.0 0.00 0.00 0.00 100 1014.5
20260902035901 87 84 0.0 3.0 0.00 0.00 0.00 100 1014.5
20260902035717 87 26 0.0 4.0 0.00 0.00 0.00 100 1014.6
20260902035401 87 26 0.0 4.0 0.00 0.00 0.00 100 1014.6
20260902034901 87 248 0.0 4.0 0.00 0.00 0.00 100 1014.6
20260902034401 87 49 0.0 0.0 0.00 0.00 0.00 100 1014.6
20260902033901 87 49 0.0 3.0 0.00 0.00 0.00 100 1014.7
20260902033817 87 60 2.0 2.0 0.00 0.00 0.00 100 1014.8
20260902033401 87 60 2.0 2.0 0.00 0.00 0.00 100 1014.8
20260902032901 87 115 0.0 3.0 0.00 0.00 0.00 100 1014.9
20260902032707 87 71 3.0 5.0 0.00 0.00 0.00 100 1014.9
20260902032401 87 71 3.0 5.0 0.00 0.00 0.00 100 1014.9
20260902031901 87 116 0.0 0.0 0.00 0.00 0.00 100 1014.9
20260902031555 87 116 0.0 4.0 0.00 0.00 0.00 100 1015.0
20260902031401 87 116 0.0 4.0 0.00 0.00 0.00 100 1015.0
20260902030901 87 189 0.0 4.0 0.00 0.00 0.00 100 1014.9
20260902030401 87 28 0.0 3.0 0.00 0.00 0.00 100 1014.9
20260902025901 87 77 0.0 2.0 0.00 0.00 0.00 100 1014.9
20260902025700 87 101 0.0 0.0 0.00 0.00 0.00 100 1014.8
20260902025401 87 101 0.0 0.0 0.00 0.00 0.00 100 1014.8
20260902024901 87 101 0.0 3.0 0.00 0.00 0.00 100 1014.8
20260902024401 87 80 0.0 4.0 0.00 0.00 0.00 100 1014.8
20260902023901 87 81 0.0 4.0 0.00 0.00 0.00 100 1014.9
20260902023738 87 88 0.0 0.0 0.00 0.00 0.00 100 1014.9
20260902023401 87 88 0.0 0.0 0.00 0.00 0.00 100 1014.9
20260902022901 87 88 0.0 4.0 0.00 0.00 0.00 100 1014.9
20260902022658 87 151 0.0 0.0 0.00 0.00 0.00 100 1014.9
20260902022401 87 151 0.0 0.0 0.00 0.00 0.00 100 1014.9
20260902022239 87 151 0.0 0.0 0.00 0.00 0.00 100 1014.8
20260902021901 87 151 0.0 0.0 0.00 0.00 0.00 100 1014.8
20260902021731 87 151 0.0 0.0 0.00 0.00 0.00 100 1014.7
20260902021401 87 151 0.0 0.0 0.00 0.00 0.00 100 1014.7
20260902020901 87 151 0.0 2.0 0.00 0.00 0.00 100 1014.6
20260902020709 87 118 0.0 0.0 0.00 0.00 0.00 100 1014.6
20260902020401 87 118 0.0 0.0 0.00 0.00 0.00 100 1014.6
20260902020310 87 118 0.0 0.0 0.00 0.00 0.00 100 1014.6
20260902015901 87 118 0.0 0.0 0.00 0.00 0.00 100 1014.6
20260902015401 87 118 0.0 0.0 0.00 0.00 0.00 100 1014.6
20260902014933 87 118 0.0 0.0 0.00 0.00 0.00 100 1014.5
20260902014901 87 118 0.0 0.0 0.00 0.00 0.00 100 1014.6
20260902014401 87 118 0.0 0.0 0.00 0.00 0.00 100 1014.5
20260902014208 87 118 0.0 0.0 0.00 0.00 0.00 100 1014.4
20260902013901 87 118 0.0 0.0 0.00 0.00 0.00 100 1014.4
20260902013815 87 118 0.0 2.0 0.00 0.00 0.00 100 1014.4
20260902013401 87 118 0.0 2.0 0.00 0.00 0.00 100 1014.4
20260902012901 87 9 0.0 0.0 0.00 0.00 0.00 100 1014.3
20260902012401 87 9 0.0 1.0 0.00 0.00 0.00 100 1014.4
20260902012311 87 61 0.0 1.0 0.00 0.00 0.00 100 1014.2
20260902011901 87 61 0.0 1.0 0.00 0.00 0.00 100 1014.2
20260902011401 87 78 1.0 2.0 0.00 0.00 0.00 100 1014.2
20260902011139 87 213 0.0 0.0 0.00 0.00 0.00 100 1014.1
20260902010901 87 213 0.0 0.0 0.00 0.00 0.00 100 1014.1
20260902010633 87 213 0.0 0.0 0.00 0.00 0.00 100 1014.1
20260902010401 87 213 0.0 0.0 0.00 0.00 0.00 100 1014.1
20260902005901 87 213 0.0 0.0 0.00 0.00 0.00 100 1014.1
20260902005656 87 213 0.0 4.0 0.00 0.00 0.00 100 1013.1
20260902005401 87 213 0.0 4.0 0.00 0.00 0.00 100 1013.1
20260902004901 88 153 0.0 0.0 0.00 0.00 0.00 100 1013.0
20260902004401 88 153 0.0 0.0 0.00 0.00 0.00 100 1013.0
20260902003901 88 153 0.0 0.0 0.00 0.00 0.00 100 1012.8
20260902003401 88 153 0.0 0.0 0.00 0.00 0.00 100 1013.1
20260902002901 88 153 0.0 0.0 0.00 0.00 0.00 100 1013.7
20260902002401 88 153 0.0 2.0 0.00 0.00 0.00 100 1014.1
20260902001901 88 153 0.0 2.0 0.00 0.00 0.00 100 1014.1
20260902001423 88 37 0.0 2.0 0.00 0.00 0.00 100 1014.0
20260902001401 88 37 0.0 0.0 0.00 0.00 0.00 100 1014.1
20260902000901 88 37 0.0 2.0 0.00 0.00 0.00 100 1014.0
20260902000401 88 105 0.0 2.0 0.00 0.00 0.00 100 1014.0
20260901235901 89 143 0.0 3.0 0.00 0.00 0.00 100 1013.0
20260901235401 89 132 0.0 1.0 0.00 0.00 0.00 100 1013.0
20260901234901 89 140 0.0 1.0 0.00 0.00 0.00 100 1012.7
20260901234401 89 267 0.0 2.0 0.00 0.00 0.00 100 1012.8
20260901233901 89 158 2.0 2.0 0.00 0.00 0.00 100 1013.1
20260901233540 89 150 0.0 0.0 0.00 0.00 0.00 100 1012.8
20260901233401 89 150 0.0 0.0 0.00 0.00 0.00 100 1012.8
20260901232901 89 150 0.0 3.0 0.00 0.00 0.00 100 1013.8
20260901232401 89 56 0.0 3.0 0.00 0.00 0.00 100 1013.1
20260901231901 89 127 0.0 4.0 0.00 0.00 0.00 100 1013.8
20260901231623 89 160 0.0 4.0 0.00 0.00 0.00 100 1013.8
20260901231401 89 160 0.0 4.0 0.00 0.00 0.00 100 1013.8
20260901230901 89 182 3.0 5.0 0.00 0.00 0.00 100 1013.8
20260901230401 88 120 1.0 5.0 0.00 0.00 0.00 100 1013.9
20260901225901 88 115 2.0 6.0 0.00 0.00 0.00 100 1013.8
20260901225401 88 219 1.0 6.0 0.00 0.00 0.00 100 1013.7
20260901224901 88 151 1.0 7.0 0.00 0.00 0.00 100 1013.5
20260901224704 88 82 3.0 6.0 0.00 0.00 0.00 100 1013.9
20260901224401 88 82 3.0 6.0 0.00 0.00 0.00 100 1013.9
20260901223901 88 119 2.0 6.0 0.00 0.00 0.00 100 1013.5
20260901223401 88 119 1.0 8.0 0.00 0.00 0.00 100 1013.4
20260901222901 88 153 3.0 5.0 0.00 0.00 0.00 100 1013.8
20260901222713 89 192 0.0 7.0 0.00 0.00 0.00 100 1013.8
20260901222401 89 192 0.0 7.0 0.00 0.00 0.00 100 1013.8
20260901221901 89 187 5.0 5.0 0.00 0.00 0.00 100 1013.7
20260901221714 89 223 1.0 7.0 0.00 0.00 0.00 100 1013.6
20260901221401 89 223 1.0 7.0 0.00 0.00 0.00 100 1013.6
20260901220901 89 219 2.0 5.0 0.00 0.00 0.00 100 1013.5
20260901220659 89 174 2.0 8.0 0.00 0.00 0.00 100 1013.7
20260901220401 89 174 2.0 8.0 0.00 0.00 0.00 100 1013.7
20260901215901 89 140 3.0 9.0 0.00 0.00 0.00 100 1012.7
20260901215720 90 306 0.0 10.0 0.00 0.00 0.00 100 1013.4
20260901215401 90 306 0.0 10.0 0.00 0.00 0.00 100 1013.4
20260901214901 90 208 1.0 6.0 0.00 0.00 0.00 100 1013.5
20260901214807 91 279 0.0 7.0 0.00 0.00 0.00 100 1013.5
20260901214401 91 279 0.0 7.0 0.00 0.00 0.00 100 1013.5
20260901213901 92 64 5.0 10.0 0.00 0.00 0.00 100 1013.6
20260901213719 94 75 6.0 12.0 0.00 0.00 0.00 100 1013.5
20260901213401 94 75 6.0 12.0 0.00 0.00 0.00 100 1013.5
20260901212901 94 33 4.0 12.0 0.00 0.00 0.00 100 1013.2
20260901212401 93 25 2.0 12.0 0.00 0.00 0.00 100 1011.1
20260901211901 93 46 5.0 17.0 0.00 0.00 0.00 100 1012.5
20260901211401 92 14 8.0 15.0 0.00 0.00 0.00 100 1012.2
20260901210901 92 11 11.0 17.0 0.00 0.00 0.00 100 1013.0
20260901210401 93 4 12.0 16.0 0.00 0.00 0.00 100 1012.9
20260901205901 93 343 8.0 13.0 0.00 0.00 0.00 100 1012.9
20260901205600 92 32 7.0 13.0 0.00 0.00 0.00 100 1012.7
20260901205402 92 32 7.0 13.0 0.00 0.00 0.00 100 1012.7
20260901204901 92 18 2.0 14.0 0.00 0.00 0.00 100 1012.5
20260901204612 93 11 7.0 11.0 0.00 0.00 0.00 100 1012.7
20260901204401 93 11 7.0 11.0 0.00 0.00 0.00 100 1012.7
20260901203901 93 358 3.0 12.0 0.00 0.00 0.00 100 1012.6
20260901203700 93 358 8.0 12.0 0.00 0.00 0.00 100 1012.6
20260901203515 93 358 8.0 12.0 0.00 0.00 0.00 100 1012.6
20260901203401 93 358 8.0 12.0 0.00 0.00 0.00 100 1012.6
20260901203059 92 61 5.0 11.0 0.00 0.00 0.00 100 1012.7
20260901202901 92 61 5.0 11.0 0.00 0.00 0.00 100 1012.7
20260901202401 92 347 9.0 15.0 0.00 0.00 0.00 100 1012.7
20260901201901 92 33 7.0 13.0 0.00 0.00 0.00 100 1012.7
20260901201401 92 53 8.0 12.0 0.00 0.00 0.00 100 1012.7
20260901200901 92 358 8.0 11.0 0.00 0.00 0.00 100 1012.8
20260901200604 92 43 6.0 13.0 0.00 0.00 0.00 100 1012.9
20260901200401 92 43 6.0 13.0 0.00 0.00 0.00 100 1012.9
20260901195901 92 14 8.0 11.0 0.00 0.00 0.00 100 1013.0
20260901195401 92 16 7.0 11.0 0.00 0.00 0.00 100 1013.0
20260901194901 92 36 7.0 13.0 0.00 0.00 0.00 100 1013.1
20260901194456 92 4 8.0 14.0 0.00 0.00 0.00 100 1013.1
20260901194401 92 347 9.0 12.0 0.00 0.00 0.00 100 1013.1
20260901193901 92 4 8.0 14.0 0.00 0.00 0.00 100 1013.1
20260901193401 91 5 7.0 17.0 0.00 0.00 0.00 100 1013.3
20260901193114 92 26 10.0 13.0 0.00 0.00 0.00 100 1013.3
20260901192901 92 26 10.0 13.0 0.00 0.00 0.00 100 1013.3
20260901192605 92 11 9.0 13.0 0.00 0.00 0.00 100 1013.4
20260901192401 92 11 9.0 13.0 0.00 0.00 0.00 100 1013.4
20260901191901 92 25 7.0 12.0 0.00 0.00 0.00 100 1013.5
20260901191540 92 358 5.0 11.0 0.00 0.00 0.00 100 1013.5
20260901191401 92 358 5.0 11.0 0.00 0.00 0.00 100 1013.5
20260901190901 92 11 8.0 12.0 0.00 0.00 0.00 100 1013.6
20260901190627 92 14 6.0 12.0 0.00 0.00 0.00 100 1013.6
20260901190401 92 14 6.0 12.0 0.00 0.00 0.00 100 1013.6
20260901185901 92 1 9.0 12.0 0.00 0.00 0.00 100 1013.6
20260901185627 92 351 6.0 13.0 0.00 0.00 0.00 100 1013.7
20260901185401 92 351 6.0 13.0 0.00 0.00 0.00 100 1013.7
20260901184902 92 49 4.0 12.0 0.00 0.00 0.00 100 1013.8
20260901184700 92 54 7.0 14.0 0.00 0.00 0.00 100 1013.9
20260901184401 92 54 7.0 14.0 0.00 0.00 0.00 100 1013.9
20260901183901 92 355 12.0 13.0 0.00 0.00 0.00 100 1013.9
20260901183643 92 46 7.0 14.0 0.00 0.00 0.00 100 1014.0
20260901183401 92 46 7.0 14.0 0.00 0.00 0.00 100 1014.0
20260901183127 92 344 12.0 16.0 0.00 0.00 0.00 100 1014.1
20260901182901 92 344 12.0 16.0 0.00 0.00 0.00 100 1014.1
20260901182401 92 19 7.0 14.0 0.00 0.00 0.00 100 1014.3
20260901181901 91 350 13.0 13.0 0.00 0.00 0.00 100 1014.4
20260901181401 91 22 7.0 15.0 0.00 0.00 0.00 100 1014.5
20260901181132 92 315 9.0 13.0 0.00 0.00 0.00 100 1014.5
20260901180901 92 315 9.0 13.0 0.00 0.00 0.00 100 1014.5
20260901180401 92 8 2.0 14.0 0.00 0.00 0.00 100 1014.6